TimeAKST,TemperatureF,Dew PointF,Humidity,Sea Level PressureIn,VisibilityMPH,Wind Direction,Wind SpeedMPH,Gust SpeedMPH,PrecipitationIn,Events,Conditions,WindDirDegrees,DateUTC
12:16 AM,32.0,23.0,69,29.96,10.0,East,16.1,-,N/A,,Overcast,80,2012-11-22 09:16:00
12:36 AM,32.0,23.0,69,29.96,10.0,East,15.0,19.6,N/A,,Mostly Cloudy,90,2012-11-22 09:36:00
12:56 AM,32.0,21.2,64,29.96,10.0,ESE,11.5,17.3,N/A,,Scattered Clouds,110,2012-11-22 09:56:00
1:16 AM,33.8,23.0,65,29.95,10.0,East,12.7,17.3,N/A,,Mostly Cloudy,100,2012-11-22 10:16:00
1:36 AM,33.8,23.0,65,29.95,10.0,East,13.8,-,N/A,,Mostly Cloudy,90,2012-11-22 10:36:00
1:56 AM,33.8,23.0,65,29.94,10.0,East,11.5,-,N/A,,Overcast,90,2012-11-22 10:56:00
2:16 AM,33.8,24.8,70,29.93,10.0,East,12.7,18.4,N/A,,Mostly Cloudy,90,2012-11-22 11:16:00
2:36 AM,33.8,23.0,65,29.93,10.0,East,13.8,19.6,N/A,,Overcast,100,2012-11-22 11:36:00
2:56 AM,33.8,24.8,70,29.92,10.0,East,15.0,-,N/A,,Mostly Cloudy,90,2012-11-22 11:56:00
3:16 AM,33.8,23.0,65,29.90,10.0,East,11.5,-,N/A,,Partly Cloudy,90,2012-11-22 12:16:00
3:36 AM,35.6,24.8,65,29.88,10.0,East,13.8,20.7,N/A,,Partly Cloudy,80,2012-11-22 12:36:00
3:56 AM,33.8,21.2,60,29.88,10.0,East,11.5,17.3,N/A,,Mostly Cloudy,90,2012-11-22 12:56:00
4:16 AM,35.6,24.8,65,29.86,10.0,East,15.0,-,N/A,,Overcast,90,2012-11-22 13:16:00
4:36 AM,35.6,24.8,65,29.85,10.0,East,13.8,-,N/A,,Overcast,80,2012-11-22 13:36:00
4:56 AM,35.6,24.8,65,29.83,10.0,East,17.3,-,N/A,,Mostly Cloudy,80,2012-11-22 13:56:00
5:16 AM,35.6,24.8,65,29.81,10.0,East,16.1,-,N/A,,Overcast,90,2012-11-22 14:16:00
5:36 AM,37.4,24.8,60,29.82,10.0,East,12.7,-,N/A,,Overcast,100,2012-11-22 14:36:00
5:56 AM,37.4,26.6,65,29.80,10.0,East,12.7,18.4,N/A,,Overcast,80,2012-11-22 14:56:00
6:16 AM,37.4,24.8,60,29.78,10.0,East,13.8,18.4,N/A,,Overcast,80,2012-11-22 15:16:00
6:36 AM,37.4,24.8,60,29.76,10.0,ESE,15.0,18.4,N/A,,Overcast,110,2012-11-22 15:36:00
6:56 AM,39.2,24.8,56,29.74,10.0,East,16.1,23.0,N/A,,Overcast,90,2012-11-22 15:56:00
7:16 AM,39.2,24.8,56,29.73,10.0,East,15.0,-,N/A,,Overcast,80,2012-11-22 16:16:00
7:36 AM,39.2,24.8,56,29.72,10.0,East,13.8,20.7,N/A,,Overcast,90,2012-11-22 16:36:00
7:56 AM,39.2,26.6,61,29.70,10.0,East,12.7,21.9,N/A,,Overcast,80,2012-11-22 16:56:00
8:16 AM,39.2,24.8,56,29.69,10.0,East,16.1,24.2,N/A,,Overcast,80,2012-11-22 17:16:00
8:36 AM,39.2,24.8,56,29.67,10.0,East,15.0,28.8,N/A,,Overcast,80,2012-11-22 17:36:00
8:56 AM,39.2,26.6,61,29.67,10.0,East,13.8,21.9,N/A,,Overcast,80,2012-11-22 17:56:00
9:16 AM,39.2,26.6,61,29.65,10.0,East,17.3,23.0,N/A,,Overcast,90,2012-11-22 18:16:00
9:36 AM,39.2,24.8,56,29.63,10.0,East,18.4,25.3,N/A,,Overcast,90,2012-11-22 18:36:00
9:56 AM,39.2,24.8,56,29.61,7.0,East,17.3,32.2,N/A,,Overcast,90,2012-11-22 18:56:00
10:16 AM,39.2,24.8,56,29.59,7.0,East,20.7,32.2,N/A,,Overcast,80,2012-11-22 19:16:00
10:36 AM,39.2,26.6,61,29.57,7.0,ENE,18.4,28.8,N/A,,Overcast,70,2012-11-22 19:36:00
10:56 AM,39.2,26.6,61,29.55,7.0,ENE,20.7,24.2,N/A,,Overcast,70,2012-11-22 19:56:00
11:16 AM,39.2,28.4,65,29.54,10.0,ENE,21.9,28.8,N/A,,Overcast,70,2012-11-22 20:16:00
11:36 AM,39.2,28.4,65,29.53,10.0,East,16.1,25.3,N/A,,Overcast,80,2012-11-22 20:36:00
11:56 AM,39.2,30.2,70,29.52,7.0,East,16.1,27.6,N/A,,Overcast,80,2012-11-22 20:56:00
12:16 PM,39.2,30.2,70,29.53,7.0,East,13.8,21.9,N/A,,Overcast,80,2012-11-22 21:16:00
12:36 PM,39.2,32.0,75,29.51,7.0,East,20.7,25.3,N/A,,Overcast,100,2012-11-22 21:36:00
12:56 PM,37.4,30.2,75,29.52,7.0,East,10.4,24.2,N/A,,Overcast,80,2012-11-22 21:56:00
1:16 PM,39.2,32.0,75,29.51,10.0,ESE,15.0,-,N/A,,Overcast,120,2012-11-22 22:16:00
1:36 PM,42.8,32.0,66,29.51,10.0,SE,15.0,19.6,N/A,,Overcast,130,2012-11-22 22:36:00
1:56 PM,42.8,32.0,66,29.51,10.0,ESE,11.5,18.4,N/A,,Overcast,120,2012-11-22 22:56:00
2:16 PM,42.8,32.0,66,29.50,10.0,ESE,12.7,-,N/A,,Overcast,120,2012-11-22 23:16:00
2:36 PM,42.8,30.2,61,29.50,10.0,ESE,11.5,-,N/A,,Overcast,120,2012-11-22 23:36:00
2:56 PM,44.6,32.0,61,29.50,10.0,ESE,8.1,-,N/A,,Overcast,120,2012-11-22 23:56:00
3:16 PM,44.6,32.0,61,29.49,10.0,ESE,10.4,16.1,N/A,,Overcast,120,2012-11-23 00:16:00
3:36 PM,44.6,30.2,57,29.48,10.0,ESE,12.7,16.1,N/A,,Overcast,120,2012-11-23 00:36:00
3:56 PM,44.6,32.0,61,29.48,10.0,ESE,13.8,-,N/A,,Overcast,110,2012-11-23 00:56:00
4:16 PM,42.8,32.0,66,29.48,10.0,East,15.0,18.4,N/A,,Overcast,90,2012-11-23 01:16:00
4:36 PM,42.8,30.2,61,29.46,10.0,East,11.5,-,N/A,,Overcast,80,2012-11-23 01:36:00
4:56 PM,41.0,30.2,65,29.45,10.0,East,11.5,-,N/A,,Overcast,90,2012-11-23 01:56:00
5:16 PM,42.8,30.2,61,29.44,10.0,East,13.8,17.3,N/A,,Overcast,90,2012-11-23 02:16:00
5:36 PM,41.0,32.0,70,29.42,10.0,East,16.1,19.6,N/A,,Overcast,90,2012-11-23 02:36:00
5:56 PM,41.0,32.0,70,29.41,10.0,East,15.0,20.7,N/A,,Overcast,80,2012-11-23 02:56:00
6:16 PM,39.2,32.0,75,29.40,10.0,East,17.3,21.9,N/A,,Overcast,90,2012-11-23 03:16:00
6:36 PM,39.2,32.0,75,29.40,10.0,East,18.4,25.3,N/A,,Overcast,80,2012-11-23 03:36:00
6:56 PM,39.2,32.0,75,29.39,10.0,East,16.1,21.9,N/A,,Overcast,90,2012-11-23 03:56:00
7:16 PM,41.0,33.8,76,29.38,10.0,East,17.3,24.2,N/A,,Overcast,90,2012-11-23 04:16:00
7:36 PM,42.8,33.8,70,29.38,10.0,East,16.1,20.7,N/A,,Overcast,90,2012-11-23 04:36:00
7:56 PM,42.8,33.8,70,29.40,10.0,SE,17.3,23.0,N/A,,Overcast,130,2012-11-23 04:56:00
8:16 PM,42.8,33.8,70,29.43,10.0,SE,16.1,24.2,N/A,,Overcast,130,2012-11-23 05:16:00
8:36 PM,41.0,33.8,76,29.45,10.0,SE,15.0,20.7,N/A,,Overcast,130,2012-11-23 05:36:00
8:56 PM,41.0,33.8,76,29.48,7.0,SSE,6.9,-,N/A,,Overcast,160,2012-11-23 05:56:00
9:16 PM,37.4,32.0,81,29.51,8.0,West,10.4,18.4,N/A,,Overcast,280,2012-11-23 06:16:00
9:36 PM,37.4,32.0,81,29.52,8.0,Calm,Calm,-,N/A,,Overcast,0,2012-11-23 06:36:00
9:56 PM,35.6,30.2,81,29.53,8.0,NNW,5.8,-,N/A,,Overcast,330,2012-11-23 06:56:00
10:16 PM,35.6,32.0,87,29.52,8.0,NE,6.9,-,N/A,,Overcast,40,2012-11-23 07:16:00
10:36 PM,37.4,32.0,81,29.53,8.0,West,8.1,-,N/A,,Overcast,260,2012-11-23 07:36:00
10:56 PM,35.6,28.4,75,29.55,8.0,West,9.2,-,N/A,,Overcast,280,2012-11-23 07:56:00
11:16 PM,33.8,30.2,87,29.55,4.0,North,4.6,-,N/A,,Overcast,360,2012-11-23 08:16:00
11:36 PM,35.6,30.2,81,29.55,7.0,ESE,4.6,-,N/A,,Overcast,120,2012-11-23 08:36:00
11:56 PM,33.8,30.2,87,29.55,10.0,North,5.8,-,N/A,,Mostly Cloudy,10,2012-11-23 08:56:00